AMSC 1 (23553 NORAD) Tracking and Keplerian Element Data

This shows tracking and keplerian element data for the satellite.

Feedback or suggestion? Click here.




ElementValue
Catalog23553
NameAMSC 1
Epoch Orbit10675
Epoch Day160.11670478
Epoch Year2024
RAAN21.4235
Inclination12.6231
Eccentricity0.0005263
Argument of Perigee327.9476
Mean Anonmoly202.1087
Mean Motion1.00271876
Decay Rate-1.03E-06
L11 23553U 95019A 24160.11670478 -.00000103 00000+0 00000+0 0 9992
L22 23553 12.6231 21.4235 0005263 327.9476 202.1087 1.00271876106757



Live tracking and technical data element details for AMSC 1 (NORAD 23553). AMSC 1 can be tracked NOW for your location showing map with azimuth and elevation plus other details from your city location.







IsCatalogInMostPopularTable: catalog: 23553, numindb: 313
Update: records affected: 1



GetName: 23553 AMSC 1

Hit Count: updated at: Fri, 16 May 2025 10:23:47 GMT